Weather Roundup
Issued by NWS

Home | Current Version | Previous Version | Text Only | Print | Product List | Glossary On
Versions: 1 2 3 4 5 6 7 8 9 10 11 12 13 14 15 16 17 18 19 20 21 22 23 24 25 26 27 28 29 30 31 32 33 34 35 36 37 38 39 40 41 42 43 44 45 46 47 48 49 50
000
NZUS93 KARX 211159
HRRWXR

CURRENT HOURLY OBSERVATIONS ACROSS
MUCH OF THE UPPER MISSISSIPPI VALLEY
NATIONAL WEATHER SERVICE LA CROSSE WI
700 AM CDT THU MAY 21 2015


...SOUTHEAST MINNESOTA...


CITY           SKY/WX    TMP DP  RH WIND       PRES   REMARKS
ROCHESTER      SUNNY     44  39  82 W14       30.09S
ROCHESTER/MAYO FAIR      45  39  79 W6        30.08F
WINONA         SUNNY     46  41  81 CALM      30.08S
AUSTIN         SUNNY     43  39  87 SW5       30.10S
ALBERT LEA     SUNNY     45  39  81 SW5       30.11R
DODGE CENTER   SUNNY     45  39  81 W13       30.08S
PRESTON        MOSUNNY   43  38  83 W10       30.09F
OWATONNA       SUNNY     45  37  76 SW6       30.09S
FARIBAULT      SUNNY     45  39  81 S5        30.08S
$$

...ELSEWHERE IN MINNESOTA...


CITY           SKY/WX    TMP DP  RH WIND       PRES   REMARKS
MINNEAPOLIS    MOSUNNY   47  36  65 SW7       30.05S
INTNL FALLS    SUNNY     45  34  65 NW5       30.05R
DULUTH         MOSUNNY   50  34  54 NW8       29.96R
RED WING       SUNNY     43  41  93 CALM      30.06S
REDWOOD FALLS  SUNNY     50  36  58 W12       30.08S
MANKATO        MOSUNNY   46  37  71 W9        30.09S
WORTHINGTON    CLOUDY    45  30  57 W15       30.15S
FAIRMONT       SUNNY     46  34  61 W10       30.11S
$$

...SOUTHWEST WISCONSIN...


CITY           SKY/WX    TMP DP  RH WIND       PRES   REMARKS
LA CROSSE      MOSUNNY   47  39  74 S6        30.08S
PRAIRIE DU CHI MOSUNNY   43  38  80 W3        30.12S
BOSCOBEL       PTSUNNY   43  40  89 SW7       30.12S
LONE ROCK      NOT AVBL
PLATTEVILLE    PTSUNNY   42  40  96 W8        30.12S
FORT MC COY    MOSUNNY   36  35  94 CALM      30.08S
VIROQUA        FAIR      40  40 100 SW6       30.08S
WIS DELLS      PTSUNNY   42  38  87 W6        30.08R
$$

...ELSEWHERE IN WISCONSIN...


CITY           SKY/WX    TMP DP  RH WIND       PRES   REMARKS
MILWAUKEE      MOSUNNY   46  39  76 W10       30.08R
MADISON        PTSUNNY   44  39  82 W6        30.09R
GREEN BAY      SUNNY     46  36  68 SW7       30.02R
EAU CLAIRE     SUNNY     45  37  73 SW8       30.03S
BLACK RVR FLS  FAIR      40  40  99 S3        30.06S
MEDFORD        SUNNY     40  32  72 SW6       30.02S
WAUSAU         SUNNY     45  33  63 NW8       30.00F
WIS RAPIDS     MOSUNNY   42  37  82 SW6       30.06S
MARSHFIELD     SUNNY     43  36  76 W8        30.03S
RICE LAKE      MOSUNNY   44  33  65 SW3       30.03S
$$

...NORTHEAST IOWA...


CITY           SKY/WX    TMP DP  RH WIND       PRES   REMARKS
DECORAH        PTSUNNY   43  39  87 VRB5      30.10S
MASON CITY     SUNNY     45  39  79 W15       30.14S
CHARLES CITY   SUNNY     43  41  93 W12G17    30.13S
OELWEIN        MOSUNNY   39  39 100 SW6       30.14S WCI  35
$$

...ELSEWHERE IN IOWA...


CITY           SKY/WX    TMP DP  RH WIND       PRES   REMARKS
DES MOINES     SUNNY     44  40  85 W7        30.22R
IOWA CITY      SUNNY     40  39  97 W5        30.20R
FORT DODGE     SUNNY     43  37  81 SW5       30.18R
$$

...NORTHERN ILLINOIS...


CITY           SKY/WX    TMP DP  RH WIND       PRES   REMARKS
CHICAGO-OHARE  CLOUDY    46  38  73 W10       30.10R
CHICAGO-MIDWAY CLOUDY    48  39  71 W9        30.11R
MOLINE         CLOUDY    45  39  79 W8        30.18R
ROCKFORD       CLOUDY    44  39  82 W5        30.15R
PEORIA         CLOUDY    47  40  76 VRB6      30.18R
$$

NOTE: "FAIR" INDICATES FEW OR NO CLOUDS BELOW 12,000 FEET WITH NO
SIGNIFICANT WEATHER AND/OR OBSTRUCTIONS TO VISIBILITY. WIND
SPEEDS ARE IN MILES-PER-HOUR.



USA.gov is the U.S. government's official web portal to all federal, state and local government web resources and services.